Bettles, AK

12:01 PM AKST on November 12, 2019 (GMT -0900)
Bettles

Weather History for PABT - May, 2019

Change the Weather History Date:

Saturday, May 4, 2019

  Actual Average Record
Temperature  
Mean Temperature 33 °F -  
Max Temperature 41 °F 44 °F 59 °F (2007)
Min Temperature 25 °F 26 °F -6 °F (1952)
Degree Days  
Heating Degree Days 32    
Moisture  
Dew Point 20 °F    
Average Humidity 58    
Maximum Humidity 69    
Minimum Humidity 37    
Precipitation  
Precipitation 0.00 in - - ()
Snow  
Snow 0.00 in - - ()
Snow Depth 29.00 in    
Sea Level Pressure  
Sea Level Pressure 30.19 in    
Wind  
Wind Speed 7 mph (NE)    
Max Wind Speed 9 mph    
Max Gust Speed -    
Visibility 10 miles    
Events      
Averages and records for this station are not official NWS values.
T = Trace of Precipitation, MM = Missing Value Source: NWS Daily Summary

Daily Weather History Graph

Daily Weather History Graph

Search for Another Location

Airport or City:

Astronomy

May. 04, 2019 Rise Set
Actual Time 5:01 AM AKDT 11:07 PM AKDT
Civil Twilight 3:17 AM AKDT 12:57 AM AKDT
Nautical Twilight Sun does not rise Sun does not rise
Astronomical Twilight Sun does not rise Sun does not rise
Moon 6:13 AM AKDT (5/4) 10:34 PM AKDT (5/4)
Length of Visible Light 21h 40m
Length of Day
18h 05m
Waning Crescent, 0% of the Moon is Illuminated
May 4
Waning Crescent
May 4
New
May 11
First Quarter
May 18
Full
May 26
Last Quarter

Hourly Weather History & Observations

Time (AKDT) Temp. Windchill Dew Point Humidity Pressure Visibility Wind Dir Wind Speed Gust Speed Precip Events Conditions
12:53 AM 30.0 °F 23.2 °F 19.9 °F 66% 30.18 in 10.0 mi NE 6.9 mph - N/A   Overcast
1:53 AM 30.0 °F 23.2 °F 19.0 °F 64% 30.19 in 10.0 mi NE 6.9 mph - N/A   Overcast
2:53 AM 28.0 °F 19.3 °F 19.0 °F 69% 30.19 in 10.0 mi NE 9.2 mph - N/A   Overcast
3:53 AM 28.0 °F 19.3 °F 19.0 °F 69% 30.20 in 10.0 mi NE 9.2 mph - N/A   Overcast
4:53 AM 28.0 °F 19.3 °F 19.0 °F 69% 30.20 in 10.0 mi NE 9.2 mph - N/A   Overcast
5:53 AM 28.0 °F 20.0 °F 18.0 °F 66% 30.21 in 10.0 mi NE 8.1 mph - N/A   Overcast
6:53 AM 28.0 °F 19.3 °F 18.0 °F 66% 30.21 in 10.0 mi NE 9.2 mph - N/A   Overcast
7:53 AM 28.9 °F 21.1 °F 19.0 °F 67% 30.21 in 10.0 mi NE 8.1 mph - N/A   Overcast
8:53 AM 30.0 °F 22.4 °F 21.0 °F 69% 30.22 in 9.0 mi NE 8.1 mph - N/A   Overcast
9:53 AM 32.0 °F 25.6 °F 21.0 °F 64% 30.22 in 9.0 mi NE 6.9 mph - N/A   Mostly Cloudy
10:53 AM 33.1 °F 26.9 °F 21.9 °F 64% 30.22 in 10.0 mi NE 6.9 mph - N/A   Mostly Cloudy
11:53 AM 35.1 °F 29.3 °F 21.9 °F 59% 30.21 in 10.0 mi NE 6.9 mph - N/A   Mostly Cloudy
12:53 PM 35.1 °F 27.9 °F 23.0 °F 61% 30.21 in 10.0 mi NE 9.2 mph - N/A   Mostly Cloudy
1:53 PM 37.0 °F 32.4 °F 21.9 °F 54% 30.21 in 10.0 mi NE 5.8 mph - N/A   Mostly Cloudy
2:53 PM 37.9 °F 34.4 °F 21.9 °F 53% 30.19 in 10.0 mi Variable 4.6 mph - N/A   Mostly Cloudy
3:53 PM 37.9 °F 34.4 °F 21.0 °F 51% 30.18 in 10.0 mi Variable 4.6 mph - N/A   Mostly Cloudy
4:53 PM 37.9 °F 34.4 °F 19.0 °F 47% 30.18 in 10.0 mi East 4.6 mph - N/A   Mostly Cloudy
5:53 PM 39.0 °F 36.8 °F 19.9 °F 46% 30.17 in 10.0 mi Variable 3.5 mph - N/A   Mostly Cloudy
6:53 PM 39.0 °F 33.4 °F 21.0 °F 49% 30.17 in 10.0 mi NE 8.1 mph - N/A   Mostly Cloudy
7:53 PM 37.9 °F 34.4 °F 19.9 °F 48% 30.16 in 10.0 mi NE 4.6 mph - N/A   Mostly Cloudy
8:53 PM 37.0 °F 32.4 °F 19.9 °F 50% 30.15 in 10.0 mi NNE 5.8 mph - N/A   Mostly Cloudy
9:53 PM 36.0 °F 31.1 °F 19.0 °F 50% 30.15 in 10.0 mi NE 5.8 mph - N/A   Mostly Cloudy
10:53 PM 35.1 °F 31.0 °F 21.0 °F 57% 30.15 in 10.0 mi NE 4.6 mph - N/A   Mostly Cloudy
11:53 PM 34.0 °F 29.8 °F 21.9 °F 61% 30.14 in 10.0 mi NNE 4.6 mph - N/A   Mostly Cloudy